sat.trackr.live / text

‹ back to catalog

STARLINK-37881

NORAD 69547 · 2026-135B

PAYLOAD ACTIVE UNKNOWN

§ Identity

Operator
Country
US
Launch date
2026-06-15
Launch site
AFWTR
Launch vehicle
Mass (kg)
RCS (m²)

Purposes: comms

External: N2YO · Heavens-Above · Gunter

§ Orbital elements

Epoch: 2026-09-20T00:39:04.578048Z

Period
93.91 min
Inclination
97.2853°
Eccentricity
0.0000910
Mean motion
15.33425284 rev/d
Perigee alt
465.0 km
Apogee alt
466.2 km
Semi-major
6,843.7 km
B*
2.9916e-4
RAAN
290.6567°
Arg perigee
95.7585°
Mean anomaly
264.3761°
Rev number
1,492

§ Raw data

STARLINK-378811 69547U 26135B   26263.02713632  .00009589  00000+0  29916-3 0  99912 69547  97.2853 290.6567 0000910  95.7585 264.3761 15.33425284 14923

JSON: /api/v1/satellites/69547 · /tle

For live sub-satellite position, see the globe view (requires WebGL).

§ Visibility from observer

Set your observer location to see the next 7 days of passes ≥ 10°. The values pass through the URL so the page stays shareable.

No JS? Fill the form by hand. The geolocation button needs JavaScript.